STARLINK-5927, 55934

Orbit data source: Space-Track

STARLINK-5927, 55934 is a payload satellite owned by SpaceX/Seattle (US) in LEO that was launched on Fri, 17 Mar 2023 UTC via an FALCON 9 launch vehicle from the Air Force Western Test Range (AFWTR). Payload-class satellites include a variety of spacecraft equipped with specific instruments for various scientific and technological missions. These include communications satellites like Starlink; space stations such as the ISS; scientific satellites like the Hubble; Earth observation satellites from companies like Planet Labs, Umbra, and HawkEye 360; GPS; miniature CubeSats for education and research; and military/defense satellites.

Loading next visibility...
Identifier
55934, 2023-037W
Orbit
LEO
Country
Flag of USUS
Related business
Manufacturer
SpaceX/Seattle
Mission
Operational Commercial Communications
Bus & Motor
STARLINK, Unknown motor
Mass
305 kg wet, ~290 kg dry
Launch date (UTC)
2023-03-17 (3 years ago)
Launch vehicle
FALCON 9
Launch site
Air Force Western Test Range (AFWTR)
Object type
Payload
Rocket body
Debris
Shape & HBR
Box + 1 Pan, 10.1 m
Radar Cross Section
11.087 m², Large (>1 m²)

Expand to show TLE details & history
Last TLE update: 19 hours ago

TLE from 19 hours ago
0 STARLINK-5927
1 55934U 23037W   25350.12009063  .00000179  00000-0  22766-4 0  9991
2 55934  69.9994 135.1097 0003184 272.8152  87.2643 14.98331798151463
Epoch: 2025-12-16T02:52Z
TLE epoch observation values (Epoch: 2025-12-16T02:52:55.830Z)
Latitude
0.00001°
Longitude
6.86821°
Altitude
574.369 km
Speed
7.574 km/s
True Right ascension
09h 00m 26s
True Declination
0° 00' 00"
Sunlit
Object was in full shadow at epoch
Visualization orbit readout
Latitude
Unknown
Longitude
Unknown
Altitude
Unknown
Speed
Unknown
Apparent Right ascension
Unknown
Apparent Declination
Unknown
Sunlit
N/A
Visualization observer readout
Local Sidereal Time
20:40:23
Azimuth
Unknown
Elevation
Unknown
Doppler factor
Unknown
Orbital elements
Apogee altitude
572.211 km
Perigee altitude
567.786 km
Semi-major axis
6,948.136 km
Eccentricity
0.00032
Inclination
69.9994°
RAAN
135.1097°
Arg. of periapsis
272.8152°
True anomaly
87.30075°
Mean anomaly
87.2643°
Eccentric anomaly
87.28252°
Mean motion
3.74749 °/min
Orbital period
96.06 mins
BSTAR
0.000022766
Loading maneuver chart data...
Computing Atmospheric mass density...
Loading historical data...
Loading historical data...
Loading historical data...
Loading historical data...
Loading historical data...
Loading historical data...
Loading historical data...

Documentation

Showing up to 5 results
|